Weather History for KVTN - December, 2013

Change the Weather History Date:

Monday, December 23, 2013

  Actual Average Record
Temperature  
Mean Temperature 2 °F 23 °F  
Max Temperature 14 °F 36 °F 68 °F (1964)
Min Temperature -11 °F 10 °F -34 °F (1983)
Degree Days  
Heating Degree Days 63 42  
Month to date heating degree days 1134 939  
Since 1 July heating degree days 2693 2557  
Cooling Degree Days 0 0  
Month to date cooling degree days 0 0  
Year to date cooling degree days 964 821  
Moisture  
Dew Point -3 °F    
Average Humidity 75    
Maximum Humidity 88    
Minimum Humidity 61    
Precipitation  
Precipitation 0.00 in 0.01 in 0.61 in (1921)
Month to date precipitation 0.69 0.28  
Year to date precipitation 23.61 19.93  
Snow  
Snow 0.00 in 0.20 in 8.80 in (1921)
Month to date snowfall 12.0 3.8  
Since 1 July snowfall 18.8 11.4  
Snow Depth 1.00 in    
Sea Level Pressure  
Sea Level Pressure 30.54 in    
Wind  
Wind Speed 5 mph (SSE)    
Max Wind Speed 15 mph    
Max Gust Speed 18 mph    
Visibility 10 miles    
Events      
T = Trace of Precipitation, MM = Missing Value Source: NWS Daily Summary

Daily Weather History Graph

Daily Weather History Graph

Search for Another Location

Airport or City:

Trip Planner

Search our weather history database for the weather conditions in past years. The results will help you decide how hot, cold, wet, or windy it might be!

Date:

Astronomy

Dec. 23, 2013 Rise Set
Actual Time 8:10 AM CST 5:12 PM CST
Civil Twilight 7:38 AM CST 5:44 PM CST
Nautical Twilight 7:02 AM CST 6:20 PM CST
Astronomical Twilight 6:28 AM CST 6:54 PM CST
Moon 11:32 PM CST (12/23) 11:29 AM CST (12/23)
Length of Visible Light 10h 06m
Length of Day
9h 01m
Waning Gibbous, 68% of the Moon is Illuminated
Dec 23
Waning Gibbous
Dec 25
Last Quarter
Jan 1
New
Jan 7
First Quarter
Jan 15
Full

Hourly Weather History & Observations

Time (CST) Temp. Windchill Dew Point Humidity Pressure Visibility Wind Dir Wind Speed Gust Speed Precip Events Conditions
12:52 AM -0.9 °F -14.1 °F -7.1 °F 75% 30.54 in 10.0 mi WNW 6.9 mph - N/A   Clear
1:52 AM -2.0 °F -15.4 °F -7.1 °F 79% 30.54 in 10.0 mi WNW 6.9 mph - N/A   Partly Cloudy
2:52 AM -2.0 °F -15.4 °F -8.0 °F 76% 30.57 in 10.0 mi NW 6.9 mph - N/A   Clear
3:52 AM -4.0 °F -12.4 °F -9.0 °F 79% 30.59 in 10.0 mi NNW 3.5 mph - N/A   Clear
4:52 AM -6.0 °F -14.7 °F -11.0 °F 79% 30.60 in 10.0 mi NW 3.5 mph - N/A   Clear
5:52 AM -9.0 °F -20.4 °F -13.0 °F 83% 30.65 in 10.0 mi West 4.6 mph - N/A   Clear
6:52 AM -9.9 °F - -15.0 °F 78% 30.67 in 10.0 mi Calm Calm - N/A   Scattered Clouds
7:52 AM -9.9 °F - -16.1 °F 74% 30.69 in 10.0 mi Calm Calm - N/A   Clear
8:52 AM -8.0 °F -16.9 °F -13.0 °F 79% 30.71 in 10.0 mi WSW 3.5 mph - N/A   Scattered Clouds
9:52 AM -2.0 °F - -8.0 °F 76% 30.65 in 10.0 mi Calm Calm - N/A   Clear
10:52 AM 1.9 °F - -4.0 °F 76% 30.65 in 10.0 mi Calm Calm - N/A   Clear
11:52 AM 3.9 °F - -2.0 °F 76% 30.62 in 10.0 mi Calm Calm - N/A   Clear
12:52 PM 7.0 °F - -2.0 °F 67% 30.58 in 10.0 mi Calm Calm - N/A   Clear
1:52 PM 10.0 °F 3.6 °F -0.9 °F 61% 30.55 in 10.0 mi SE 3.5 mph - N/A   Clear
2:52 PM 12.0 °F -0.4 °F 1.9 °F 64% 30.52 in 10.0 mi SSE 9.2 mph - N/A   Clear
3:52 PM 12.9 °F 1.6 °F 3.0 °F 65% 30.50 in 10.0 mi SE 8.1 mph - N/A   Clear
4:52 PM 10.9 °F -0.8 °F 3.0 °F 70% 30.49 in 10.0 mi SE 8.1 mph - N/A   Clear
5:52 PM 10.0 °F -3.7 °F 3.0 °F 73% 30.47 in 10.0 mi SE 10.4 mph - N/A   Partly Cloudy
6:52 PM 9.0 °F -3.2 °F 3.0 °F 77% 30.49 in 10.0 mi SE 8.1 mph - N/A   Clear
7:52 PM 8.1 °F -2.0 °F 3.0 °F 80% 30.47 in 10.0 mi ESE 5.8 mph - N/A   Clear
8:52 PM 9.0 °F 0.6 °F 3.9 °F 80% 30.42 in 10.0 mi SE 4.6 mph - N/A   Clear
9:52 PM 7.0 °F -3.3 °F 3.0 °F 84% 30.37 in 10.0 mi East 5.8 mph - N/A   Clear
10:52 PM 14.0 °F -1.4 °F 9.0 °F 80% 30.32 in 10.0 mi South 15.0 mph - N/A   Clear
11:52 PM 12.9 °F -1.6 °F 7.0 °F 77% 30.30 in 10.0 mi South 12.7 mph - N/A   Clear